Miscellaneous Local Product
Issued by NWS Hastings, NE

Home | Current Version | Previous Version | Graphics & Text | Print | Product List | Glossary On
Versions: 1 2 3 4 5 6 7 8 9 10 11 12 13 14 15 16 17 18 19 20 21 22 23 24 25 26 27 28 29 30 31 32 33 34 35 36 37 38 39 40 41 42 43 44 45 46 47 48 49 50
170
AXUS43 KGID 222202
MISGRI

GID CWA HOURLY WEATHER ROUNDUP
NATIONAL WEATHER SERVICE HASTINGS NE
500 PM CDT TUE AUG 22 2017

NOTE: "FAIR" INDICATES FEW OR NO CLOUDS BELOW 12,000 FEET WITH NO
SIGNIFICANT WEATHER AND/OR OBSTRUCTIONS TO VISIBILITY.

...SOUTH CENTRAL NEBRASKA...

CITY           SKY/WX    TMP DP  RH WIND       PRES   REMARKS
GRAND ISLAND   SUNNY     77  48  35 VRB5      30.21S
HASTINGS       SUNNY     76  50  40 CALM      30.22F
KEARNEY        SUNNY     75  50  41 CALM      30.22F
ORD            SUNNY     76  44  32 CALM      30.19F
YORK           SUNNY     73  54  49 NW7       30.20S
AURORA         SUNNY     74  51  45 NE6       30.20F
LEXINGTON      SUNNY     76  53  44 NE3       30.22F
HOLDREGE       SUNNY     74  52  45 NE5       30.22F
HEBRON         SUNNY     79  48  33 N8        30.17F

...NEBRASKA PANHANDLE...

CITY           SKY/WX    TMP DP  RH WIND       PRES   REMARKS
CHADRON        SUNNY     85  45  24 S15       30.14F
ALLIANCE       SUNNY     79  46  31 S16G24    30.21F
SCOTTSBLUFF    SUNNY     84  50  30 S14       30.18F
SIDNEY         SUNNY     81  47  30 S18G25    30.25F

...WESTERN AND NORTH CENTRAL NEBRASKA...

CITY           SKY/WX    TMP DP  RH WIND       PRES   REMARKS
VALENTINE      SUNNY     81  43  26 S6        30.18F
AINSWORTH      SUNNY     75  52  44 NE6       30.21F
ONEILL         SUNNY     75  51  43 NW6       30.21S
BROKEN BOW     SUNNY     79  49  34 E5        30.21F
IMPERIAL       SUNNY     81  42  25 SE13G20   30.23F
NORTH PLATTE   SUNNY     79  54  41 SE6       30.22F
MCCOOK         SUNNY     80  49  33 E8        30.21F

...EASTERN NEBRASKA...

CITY           SKY/WX    TMP DP  RH WIND       PRES   REMARKS
NORFOLK        SUNNY     75  50  41 N12       30.18S
SO SIOUX CITY  SUNNY     75  53  46 NW12      30.15F
TEKAMAH        SUNNY     76  50  40 N8        30.15F
ALBION         SUNNY     75  52  44 NW6       30.20S
OMAHA EPPLEY   MOSUNNY   77  51  40 N8        30.15S
OFFUTT AFB     SUNNY     77  48  35 N8        30.14F
MILLARD        SUNNY     76  52  42 N7        30.15F
LINCOLN        SUNNY     77  51  40 N10       30.18S
NEBRASKA CITY  SUNNY     75  51  43 N9        30.15F
BEATRICE       SUNNY     77  53  42 N10       30.17S
FALLS CITY     SUNNY     76  53  44 N14       30.12F

...NORTHERN KANSAS...

CITY           SKY/WX    TMP DP  RH WIND       PRES   REMARKS
GOODLAND       SUNNY     79  58  48 SE10      30.24F
HILL CITY      SUNNY     84  47  27 NE9       30.19F
NORTON         CLEAR     81  43  26 E8        30.21
PHILLIPSBURG   SUNNY     84  45  24 NE6       30.19S
SMITH CENTER   MOSUNNY   79  50  36 N8        30.19F
HAYS           SUNNY     84  49  29 NE12      30.16F
RUSSELL        SUNNY     86  47  25 NE15      30.14F
CONCORDIA      SUNNY     81  53  37 NE12      30.15F
SALINA         SUNNY     87  47  24 NE16      30.12F
TOPEKA         SUNNY     80  60  50 N14G20    30.10F



USA.gov is the U.S. government's official web portal to all federal, state and local government web resources and services.